Location: Dennehotso
(36.8461°N, 109.8435°W)
Time: 13:54:54
(UTC+00:00)

N. Korean satellite - Visible Passes

Search period start: 28 February 2021 00:00
Search period end: 10 March 2021 00:00
Orbit: 451 x 503 km, 97.2° (Epoch: 27 February)

Date Brightness Start Highest point End Pass type
(mag) Time Alt. Az. Time Alt. Az. Time Alt. Az.
28 Feb 6.9 13:05:44 10° N 13:09:05 42° WNW 13:12:28 10° SSW visible
01 Mar 6.7 12:38:53 10° NNE 12:42:25 76° ESE 12:45:59 10° S visible
02 Mar 8.5 12:12:28 10° NNE 12:15:39 31° E 12:18:51 10° SSE visible
03 Mar 9.8 11:46:52 10° ENE 11:48:48 14° E 11:50:44 10° SE visible
03 Mar 7.5 13:19:02 10° NNW 13:22:07 28° WNW 13:25:13 10° SW visible
04 Mar 6.5 12:51:55 10° N 12:55:28 68° WNW 12:59:02 10° SSW visible
05 Mar 7.6 12:25:17 10° NNE 12:28:45 47° E 12:32:14 10° S visible
06 Mar 9.3 11:59:09 10° NE 12:01:55 21° E 12:04:42 10° SE visible
07 Mar 6.9 13:05:03 10° N 13:08:28 43° WNW 13:11:55 10° SSW visible
08 Mar 6.7 12:38:10 10° NNE 12:41:46 76° E 12:45:23 10° S visible
09 Mar 8.6 12:11:43 10° NNE 12:14:59 31° E 12:18:14 10° SSE visible
